Wind_Speed
47 48 47 44 43 41 41 41 41 40 41 42 40 38 37 38 39 37 37 37 37 37 37 36 36 36 36 36 36 36 36 36 36 35 36 36 36 35 35 34 34 33 33 34
50 48 44 43 44 43 43 42 41 41 42 43 42 40 38 38 39 38 37 37 38 38 37 37 36 36 36 36 36 36 36 36 36 36 36 36 36 35 34 34 33 34 34 34
50 45 43 44 44 43 43 42 41 41 42 43 43 41 38 38 38 38 38 39 39 38 38 38 37 37 37 36 37 36 36 36 37 36 36 36 35 35 34 34 34 34 34 33
50 47 46 45 44 43 42 40 40 41 42 42 43 43 37 37 37 38 39 39 38 38 38 38 37 37 37 37 37 37 36 36 36 36 36 35 35 35 35 35 34 34 33 34
51 48 48 46 43 43 42 41 42 42 43 43 42 44 38 35 36 37 37 38 37 37 37 37 37 36 37 36 36 36 36 36 36 36 35 35 34 34 34 34 33 34 34 34
50 49 48 46 44 43 42 42 43 43 44 45 40 42 41 35 35 35 36 36 36 36 36 36 36 35 35 35 35 35 35 35 35 35 35 34 34 34 33 33 33 34 34 34
51 51 50 48 47 45 44 43 43 43 44 44 40 42 41 36 34 34 35 34 34 34 34 34 34 34 33 33 34 34 34 34 34 34 34 34 34 34 33 33 33 33 34 34
51 51 50 48 47 45 44 44 43 42 42 41 41 41 39 35 33 33 33 33 33 33 33 33 33 33 33 33 33 33 33 33 33 33 34 34 34 34 33 33 34 34 34 34
51 50 48 47 45 45 45 44 41 42 42 42 42 41 38 34 33 32 32 32 33 33 33 33 33 33 33 32 32 32 33 33 33 33 34 34 34 34 34 34 34 34 34 34
49 49 49 47 47 47 46 43 42 43 43 43 42 40 39 36 33 32 32 32 32 32 32 32 32 32 32 32 32 32 32 33 33 33 33 33 34 34 34 34 34 35 35 35
50 50 51 50 49 47 45 45 44 44 44 43 42 40 37 36 34 32 31 31 31 31 31 31 31 31 31 31 31 32 32 32 32 32 33 34 34 34 34 34 35 35 36 36
49 51 52 50 47 45 45 44 44 44 44 42 42 40 37 36 35 32 32 31 31 30 30 30 30 31 31 31 31 31 32 32 32 33 33 34 34 34 34 35 35 36 36 37
50 52 52 50 49 47 46 45 44 44 44 43 41 39 36 36 35 33 32 32 31 30 30 30 31 31 31 31 31 31 32 32 32 33 33 33 34 34 35 36 36 37 37 38
50 52 52 50 47 44 44 44 43 44 45 42 39 37 37 36 35 33 33 33 32 31 31 31 31 31 31 31 31 32 32 33 33 33 33 33 34 35 36 36 37 38 38 39
50 51 50 48 47 45 43 42 43 44 42 41 37 37 36 36 36 34 33 33 32 31 31 31 31 31 31 31 31 32 32 33 33 33 34 34 35 35 36 36 37 38 39 40
49 49 48 48 47 46 45 45 44 43 41 39 38 37 35 36 36 35 34 33 32 31 31 31 31 31 31 31 31 32 32 33 33 34 34 34 35 36 36 37 38 39 40 41
48 46 48 49 47 47 49 45 42 41 39 39 38 34 34 35 35 35 35 34 32 31 31 31 30 31 31 31 31 31 32 33 33 33 34 35 35 36 37 38 39 40 41 42
48 47 47 47 48 51 47 43 41 40 38 38 37 35 35 35 35 35 34 33 32 31 31 30 30 30 30 30 31 31 32 33 33 34 34 35 36 37 38 39 40 41 42 43
49 47 48 49 49 49 45 41 39 39 38 36 36 35 35 35 35 34 32 32 31 31 30 30 29 29 30 30 31 32 32 33 33 34 35 36 37 38 38 39 40 41 43 45
51 49 48 50 49 48 42 39 38 39 38 34 34 34 33 34 34 31 31 32 31 31 30 30 30 30 30 30 31 32 32 33 33 34 35 36 37 38 39 40 41 43 44 45
52 52 50 49 49 45 41 39 39 39 33 31 32 32 33 33 32 31 31 31 31 30 30 30 30 30 30 31 31 32 32 32 33 34 35 36 37 38 39 41 42 44 45 47
51 51 49 48 48 44 39 38 38 36 34 33 32 32 32 32 32 32 31 30 30 30 30 30 31 31 31 31 32 32 32 33 34 35 36 37 38 39 41 42 44 45 47 48
49 48 45 44 42 39 37 36 36 35 34 33 32 32 32 32 32 31 31 30 30 30 30 31 31 31 31 32 32 33 33 34 35 36 37 38 39 41 42 43 45 47 48 50
45 46 44 42 41 39 37 37 36 34 33 33 32 32 31 31 31 31 31 31 31 31 31 31 31 32 32 33 33 34 35 36 37 37 38 39 41 42 43 45 47 48 50 52
42 43 43 42 40 40 39 36 36 35 34 33 32 32 31 31 30 30 31 31 31 31 31 32 32 32 33 34 34 35 36 37 38 38 40 41 42 44 45 47 48 50 52 53
41 42 41 40 38 38 37 36 36 35 34 33 32 31 31 31 31 31 31 31 31 32 32 32 33 33 34 35 36 37 38 38 39 40 41 43 44 45 47 48 49 51 53 55
Wind_Direction
235 236 237 238 240 241 242 243 245 248 251 252 252 253 254 257 260 262 263 265 267 269 271 273 274 276 278 279 280 280 281 282 282 283 283 283 284 284 284 284 284 284 284 285
235 236 236 238 239 239 241 244 245 248 251 254 254 254 255 257 260 263 264 266 268 270 271 273 274 276 277 279 279 280 280 280 281 281 282 283 284 284 283 282 283 283 283 285
236 236 236 238 238 240 241 244 246 248 251 254 257 255 255 257 260 263 265 267 269 271 272 274 274 275 276 278 279 279 280 280 281 281 281 282 282 282 282 282 282 283 284 284
235 234 235 236 238 240 242 244 247 249 252 255 258 258 254 258 260 263 265 268 270 272 273 274 275 275 276 277 278 278 279 279 280 280 281 281 281 281 281 282 283 282 283 284
235 234 236 237 239 240 242 244 247 249 252 255 257 261 258 258 261 264 266 269 271 273 274 275 275 275 276 277 277 277 278 278 279 280 280 280 280 280 281 282 282 282 283 284
234 234 235 236 237 239 241 243 246 249 252 254 256 262 262 260 262 265 268 270 271 273 274 275 276 276 276 276 276 277 278 278 278 279 279 280 279 280 280 281 281 282 283 285
232 233 234 233 235 237 239 242 245 248 251 256 258 259 262 263 264 266 268 269 271 272 274 275 276 276 276 276 277 277 278 278 278 278 279 279 279 279 279 280 281 282 283 284
234 234 235 235 236 239 241 243 246 250 254 257 257 258 262 265 266 266 267 269 271 273 274 275 276 277 277 278 278 278 278 277 277 278 278 278 278 279 279 280 281 282 283 284
234 236 236 237 237 238 239 242 245 248 251 255 258 261 262 265 266 266 268 269 271 272 274 275 277 277 278 278 278 277 277 277 277 278 278 278 278 279 280 280 282 283 283 284
234 237 237 236 235 236 238 240 241 244 249 253 258 261 265 265 265 267 268 269 271 273 274 276 277 278 278 278 278 278 277 277 277 277 277 278 279 279 280 281 281 282 283 284
230 233 235 235 234 236 237 238 241 245 249 253 258 261 264 267 268 268 269 270 271 273 275 276 277 278 279 279 278 278 278 278 278 278 278 279 280 281 281 281 281 282 283 284
226 230 233 235 236 237 238 240 242 245 248 252 257 259 262 266 268 269 270 271 272 273 275 276 278 279 280 280 279 279 279 279 279 279 280 280 281 281 281 281 282 283 284 285
224 227 229 231 233 233 234 236 240 243 246 249 253 258 261 264 267 268 270 271 273 274 276 278 280 280 280 279 280 279 279 279 279 280 281 281 281 281 281 281 282 284 286 287
223 227 230 233 236 237 237 238 240 242 244 248 252 257 261 264 266 267 269 271 273 275 276 278 279 280 280 279 279 279 279 279 280 281 281 281 281 281 282 282 284 286 287 289
221 224 227 230 234 236 237 238 240 243 246 249 252 255 259 263 265 267 269 271 273 275 276 277 278 279 279 279 279 279 279 280 280 281 281 282 281 281 282 284 285 286 288 289
222 224 225 228 231 235 237 236 238 241 244 248 249 251 255 260 264 267 269 270 272 275 276 278 279 279 279 279 279 279 280 280 280 281 281 282 282 283 284 285 286 287 289 290
223 224 225 228 230 234 235 235 239 241 244 247 250 253 255 257 261 265 268 271 272 274 276 277 279 279 278 277 278 279 280 281 281 281 281 281 283 284 284 285 287 288 289 290
221 224 226 227 229 233 236 238 241 243 244 246 249 250 253 256 259 262 266 269 272 274 275 277 278 278 278 278 278 280 281 281 281 281 281 283 284 285 285 286 287 288 289 290
220 223 225 227 231 235 235 236 240 244 245 246 248 250 253 255 257 261 265 267 270 272 274 276 277 278 278 278 279 280 281 281 281 282 283 284 284 285 285 286 287 288 289 291
220 223 226 228 231 234 234 236 240 244 244 245 248 250 252 255 258 262 264 266 268 271 274 275 276 277 278 279 280 281 282 283 283 283 284 284 285 285 286 287 288 289 290 292
223 224 227 229 232 234 235 237 239 243 247 247 249 250 252 255 259 260 262 265 268 271 273 274 276 277 278 279 280 281 282 283 284 284 285 285 286 287 287 288 289 290 292 293
225 227 228 230 231 234 236 238 242 247 249 249 250 250 252 255 257 259 262 265 268 270 272 274 275 277 278 280 281 282 282 283 284 285 285 286 287 287 288 290 291 292 293 294
225 226 229 232 235 237 238 241 243 246 248 249 250 250 252 254 257 259 261 265 268 271 273 274 275 277 279 280 281 282 283 284 285 286 287 288 288 289 290 292 293 294 295 296
226 226 229 231 232 235 239 241 242 245 247 248 249 250 252 254 256 259 262 265 268 271 273 274 276 277 279 280 282 283 284 286 287 287 288 289 290 291 292 293 294 295 296 297
226 227 229 232 232 235 237 239 241 244 246 247 248 250 252 254 256 260 264 266 268 270 273 274 276 277 278 280 281 283 285 286 287 288 289 290 292 293 294 295 296 297 298 299
224 226 228 232 233 235 236 237 240 243 245 247 247 250 253 255 258 261 264 267 268 270 273 274 276 278 279 280 282 284 286 287 288 289 291 292 293 294 295 296 297 299 300 301
Height
5746 5752 5758 5765 5769 5773 5775 5778 5782 5785 5786 5789 5792 5796 5800 5800 5802 5804 5805 5806 5807 5808 5808 5809 5809 5809 5809 5808 5808 5807 5807 5806 5805 5804 5803 5802 5801 5800 5798 5797 5796 5794 5793 5791
5736 5743 5752 5755 5759 5763 5767 5770 5774 5777 5778 5780 5783 5788 5792 5793 5794 5796 5797 5798 5799 5800 5800 5801 5802 5801 5801 5800 5800 5800 5799 5798 5797 5797 5795 5794 5793 5792 5791 5789 5788 5787 5785 5784
5728 5739 5743 5746 5750 5754 5758 5763 5766 5769 5770 5771 5774 5779 5784 5785 5786 5788 5789 5790 5791 5792 5792 5793 5794 5794 5793 5793 5792 5792 5791 5790 5789 5789 5788 5786 5785 5784 5783 5782 5780 5779 5778 5776
5717 5727 5731 5736 5741 5746 5751 5755 5758 5760 5761 5764 5766 5768 5776 5777 5778 5780 5781 5782 5783 5784 5784 5785 5785 5785 5785 5785 5784 5784 5783 5782 5781 5781 5780 5779 5778 5777 5776 5774 5773 5771 5770 5769
5709 5717 5722 5728 5735 5739 5743 5746 5749 5751 5753 5755 5758 5758 5767 5770 5770 5772 5773 5774 5774 5775 5776 5776 5777 5777 5777 5777 5776 5775 5775 5774 5773 5773 5772 5771 5770 5769 5768 5767 5765 5764 5762 5761
5700 5707 5713 5720 5726 5730 5734 5737 5740 5742 5744 5746 5752 5752 5756 5761 5763 5764 5765 5766 5766 5767 5768 5768 5768 5769 5769 5768 5768 5767 5767 5766 5765 5764 5764 5763 5762 5761 5760 5759 5758 5756 5755 5754
5689 5696 5702 5710 5715 5720 5724 5728 5731 5733 5734 5739 5744 5744 5748 5753 5755 5756 5757 5758 5758 5759 5760 5760 5760 5760 5760 5760 5759 5759 5758 5758 5757 5756 5756 5755 5754 5753 5752 5751 5750 5749 5747 5746
5680 5686 5694 5700 5707 5712 5716 5720 5725 5727 5729 5732 5733 5735 5742 5745 5747 5748 5749 5750 5751 5751 5752 5752 5752 5752 5752 5752 5751 5751 5750 5750 5749 5748 5748 5747 5746 5745 5744 5743 5742 5741 5739 5738
5672 5680 5687 5693 5699 5703 5707 5710 5717 5719 5720 5722 5724 5728 5733 5736 5739 5740 5742 5742 5743 5744 5744 5744 5744 5744 5744 5744 5743 5743 5743 5742 5741 5741 5740 5739 5738 5737 5736 5735 5734 5733 5731 5729
5664 5671 5677 5683 5687 5692 5698 5703 5706 5708 5711 5713 5717 5721 5725 5728 5731 5733 5734 5735 5735 5736 5736 5736 5736 5736 5736 5736 5735 5735 5735 5734 5733 5733 5732 5731 5730 5729 5728 5727 5726 5724 5722 5721
5655 5660 5665 5670 5675 5684 5689 5693 5696 5701 5704 5707 5709 5716 5718 5720 5722 5724 5726 5727 5728 5728 5728 5728 5728 5728 5728 5728 5727 5727 5726 5726 5725 5725 5724 5723 5722 5721 5720 5719 5717 5716 5714 5712
5645 5649 5654 5661 5669 5675 5679 5684 5688 5692 5696 5699 5702 5709 5710 5712 5714 5716 5717 5719 5719 5720 5720 5720 5720 5720 5720 5720 5719 5719 5718 5718 5717 5717 5716 5715 5714 5713 5711 5710 5708 5707 5705 5703
5635 5639 5644 5649 5657 5663 5668 5674 5678 5683 5687 5689 5693 5701 5702 5704 5706 5708 5709 5710 5711 5712 5712 5713 5713 5712 5712 5712 5711 5711 5711 5710 5709 5708 5708 5707 5705 5704 5703 5701 5700 5698 5696 5694
5624 5628 5635 5642 5649 5657 5661 5666 5670 5673 5676 5681 5687 5692 5694 5695 5697 5700 5701 5702 5703 5704 5705 5705 5705 5704 5704 5704 5703 5703 5702 5702 5701 5700 5699 5698 5697 5695 5694 5693 5691 5689 5687 5685
5611 5618 5627 5635 5641 5646 5651 5657 5661 5664 5670 5675 5681 5684 5687 5687 5689 5691 5693 5693 5695 5696 5696 5696 5696 5696 5696 5695 5695 5694 5694 5693 5692 5691 5690 5689 5688 5686 5685 5683 5682 5680 5677 5675
5602 5610 5618 5624 5631 5636 5639 5646 5651 5657 5662 5667 5671 5675 5680 5680 5681 5682 5684 5685 5687 5687 5688 5688 5688 5688 5687 5687 5686 5686 5685 5684 5683 5682 5681 5680 5679 5677 5676 5674 5672 5670 5667 5665
5594 5603 5609 5616 5622 5624 5628 5638 5644 5649 5654 5659 5662 5669 5671 5672 5673 5674 5676 5677 5678 5679 5679 5679 5680 5679 5679 5678 5678 5677 5676 5676 5674 5673 5672 5671 5669 5668 5666 5664 5662 5660 5657 5654
5586 5594 5600 5606 5612 5613 5626 5633 5637 5641 5646 5651 5655 5659 5661 5663 5665 5666 5668 5669 5670 5670 5671 5671 5671 5670 5670 5669 5669 5668 5667 5666 5665 5664 5663 5662 5660 5658 5656 5654 5652 5649 5646 5643
5577 5584 5590 5596 5600 5607 5617 5625 5630 5633 5638 5643 5647 5650 5652 5654 5655 5658 5660 5661 5662 5662 5662 5662 5662 5662 5661 5661 5660 5659 5658 5657 5656 5655 5654 5652 5650 5648 5646 5644 5641 5639 5636 5632
5568 5575 5582 5587 5592 5599 5612 5619 5622 5625 5628 5636 5638 5641 5643 5645 5647 5651 5652 5652 5653 5653 5654 5654 5654 5653 5653 5652 5651 5650 5650 5648 5647 5646 5644 5642 5640 5638 5636 5633 5631 5628 5624 5621
5559 5565 5572 5579 5584 5593 5604 5609 5612 5617 5625 5628 5630 5632 5634 5636 5640 5642 5642 5643 5644 5645 5645 5645 5645 5645 5644 5643 5642 5641 5640 5639 5638 5636 5634 5632 5630 5628 5625 5623 5620 5616 5613 5609
5551 5558 5565 5571 5578 5589 5597 5601 5605 5611 5615 5618 5621 5623 5626 5628 5630 5632 5633 5635 5636 5636 5636 5636 5636 5636 5635 5634 5633 5632 5631 5630 5628 5626 5624 5622 5620 5617 5615 5612 5608 5605 5601 5597
5543 5553 5560 5568 5577 5585 5589 5594 5597 5601 5605 5609 5612 5615 5618 5620 5621 5623 5625 5626 5627 5627 5627 5627 5627 5627 5626 5625 5624 5623 5622 5620 5618 5616 5614 5612 5609 5606 5603 5600 5596 5592 5588 5584
5538 5546 5553 5560 5568 5575 5581 5585 5589 5593 5596 5600 5603 5606 5609 5611 5613 5615 5616 5617 5618 5618 5618 5618 5618 5617 5617 5616 5615 5614 5612 5610 5608 5606 5604 5601 5598 5595 5592 5588 5584 5580 5575 5570
5531 5538 5544 5551 5560 5566 5572 5577 5581 5584 5588 5592 5595 5598 5600 5602 5604 5606 5607 5608 5609 5609 5609 5609 5609 5608 5607 5606 5605 5604 5602 5600 5598 5595 5593 5590 5587 5583 5580 5576 5571 5567 5562 5556
5523 5531 5539 5546 5554 5559 5564 5568 5572 5576 5580 5583 5587 5589 5592 5594 5596 5597 5598 5599 5599 5600 5600 5599 5599 5598 5597 5596 5595 5593 5591 5589 5587 5584 5581 5578 5575 5571 5567 5563 5559 5553 5548 5542